sim
Sign-in with your pilot id or email,
or register
Callsign
Passwort

Schedule Details

Flight Number: RYR7128 (2)
Departure: Dublin Airport (EIDW) at 14:20
Arrival: Fuerteventura Airport (GCFV) at 18:45
Route: Ryanair Passenger Schedule. Enter filed route here before submitting Pirep.

Weather Information
Getting current METAR information for EIDW 182000Z 05004KT 340V080 3300 BR FEW015 BKN250 08/06 Q1025 NOSIG
Getting current METAR information for GCFV 182000Z 36016KT 9999 FEW045 18/11 Q1019

Schedule Frequency

Route Map